User: anonymous   Login
Location: SAPM � Hemmingford
(45.0500°N, 73.5833°W)
Time: 20:23:03
(UTC-04:00)
Language:

Iridium 75 - Orbit

View from above orbital plane
View from above orbital plane
View from above satellite
View from above satellite

Ground track
Ground track

The orbit data is extracted from the following two-line orbital elements,

1 25346U 98032E   16178.53184773  .00000012  00000-0 -27267-5 0  9996
2 25346  86.3954  12.7923 0002261  89.6002 326.0031 14.34215554948692
Epoch (UTC): 26 June 2016 12:45:51
Eccentricity: 0.0002261
inclination: 86.3954°
perigee height: 776 km
apogee height: 779 km
right ascension of ascending node: 12.7923°
argument of perigee: 89.6002°
revolutions per day: 14.34215554
mean anomaly at epoch: 326.0031°
orbit number at epoch: 94869

The dashed part of the orbit path shows where the satellite is in the earth's shadow,  

DLR